Weather History for Clinton, MO

Change the Weather History Date:

Tuesday, May 29, 2012

  Actual Average (KSZL) Record (KSZL)
Temperature  
Mean Temperature 74 °F -  
Max Temperature 89 °F 75 °F 89 °F (1998)
Min Temperature 60 °F 56 °F 48 °F (1997)
Cooling Degree Days 10    
Growing Degree Days 24 (Base 50)    
Moisture  
Dew Point 61 °F    
Average Humidity 63    
Maximum Humidity 94    
Minimum Humidity 33    
Precipitation  
Precipitation 0.00 in - - ()
Sea Level Pressure  
Sea Level Pressure 29.90 in    
Wind  
Wind Speed 4 mph (NE)    
Max Wind Speed 9 mph    
Max Gust Speed -    
Visibility 9 miles    
Events      
Averages and records for this station are not official NWS values.
T = Trace of Precipitation, MM = Missing Value Source: NWS Daily Summary

Daily Weather History Graph

Daily Weather History Graph

Search for Another Location

Airport:

Trip Planner

Search our weather history database for the weather conditions in past years. The results will help you decide how hot, cold, wet, or windy it might be!

Date:

Astronomy

May. 29, 2012 Rise Set
Actual Time 5:53 AM CDT 8:30 PM CDT
Civil Twilight 5:23 AM CDT 9:01 PM CDT
Nautical Twilight 4:44 AM CDT 9:40 PM CDT
Astronomical Twilight 4:01 AM CDT 10:23 PM CDT
Moon 2:07 PM CDT (5/29) 1:42 AM CDT (5/29)
Length of Visible Light 15h 38m
Length of Day
14h 37m
First Quarter, 59% of the Moon is Illuminated
May 29
First Quarter
Jun 4
Full
Jun 11
Last Quarter
Jun 19
New
Jun 26
First Quarter

Hourly Weather History & Observations

Time (CDT) Temp. Heat Index Dew Point Humidity Pressure Visibility Wind Dir Wind Speed Gust Speed Precip Events Conditions
12:15 AM 69.8 °F - 68.0 °F 94% 29.85 in 6.0 mi WNW 6.9 mph - N/A   Scattered Clouds
12:35 AM 69.8 °F - 68.0 °F 94% 29.85 in 9.0 mi Calm Calm - N/A   Partly Cloudy
12:55 AM 69.8 °F - 66.2 °F 88% 29.85 in 9.0 mi NNE 8.1 mph - N/A   Clear
1:15 AM 71.6 °F - 62.6 °F 73% 29.86 in 10.0 mi NNE 6.9 mph - N/A   Clear
1:35 AM 69.8 °F - 60.8 °F 73% 29.85 in 10.0 mi NNE 6.9 mph - N/A   Clear
1:55 AM 69.8 °F - 60.8 °F 73% 29.85 in 10.0 mi North 6.9 mph - N/A   Clear
2:15 AM 69.8 °F - 59.0 °F 68% 29.87 in 10.0 mi NE 5.8 mph - N/A   Clear
2:35 AM 69.8 °F - 57.2 °F 64% 29.87 in 10.0 mi ENE 3.5 mph - N/A   Clear
2:55 AM 69.8 °F - 55.4 °F 60% 29.90 in 10.0 mi East 5.8 mph - N/A   Clear
3:15 AM 68.0 °F - 59.0 °F 73% 29.90 in 10.0 mi ESE 3.5 mph - N/A   Clear
3:35 AM 68.0 °F - 60.8 °F 78% 29.91 in 10.0 mi East 5.8 mph - N/A   Mostly Cloudy
3:55 AM 68.0 °F - 57.2 °F 68% 29.90 in 10.0 mi ESE 5.8 mph - N/A   Scattered Clouds
4:15 AM 68.0 °F - 59.0 °F 73% 29.92 in 10.0 mi South 3.5 mph - N/A   Scattered Clouds
4:35 AM 66.2 °F - 59.0 °F 78% 29.91 in 10.0 mi SE 5.8 mph - N/A   Scattered Clouds
4:55 AM 66.2 °F - 59.0 °F 78% 29.90 in 10.0 mi SE 4.6 mph - N/A   Clear
5:15 AM 66.2 °F - 59.0 °F 78% 29.91 in 10.0 mi Calm Calm - N/A   Clear
5:35 AM 64.4 °F - 59.0 °F 83% 29.90 in 10.0 mi Calm Calm - N/A   Clear
5:55 AM 62.6 °F - 59.0 °F 88% 29.91 in 10.0 mi North 4.6 mph - N/A   Clear
6:15 AM 60.8 °F - 57.2 °F 88% 29.91 in 10.0 mi Calm Calm - N/A   Clear
6:35 AM 60.8 °F - 59.0 °F 94% 29.91 in 8.0 mi Calm Calm - N/A   Clear
6:55 AM 60.8 °F - 57.2 °F 88% 29.91 in 7.0 mi Calm Calm - N/A   Clear
7:15 AM 62.6 °F - 60.8 °F 94% 29.91 in 9.0 mi Calm Calm - N/A   Clear
7:35 AM 66.2 °F - 62.6 °F 88% 29.91 in 9.0 mi Calm Calm - N/A   Clear
7:55 AM 69.8 °F - 64.4 °F 83% 29.90 in 9.0 mi Calm Calm - N/A   Clear
8:15 AM 71.6 °F - 64.4 °F 78% 29.90 in 9.0 mi ESE 4.6 mph - N/A   Clear
8:35 AM 73.4 °F - 66.2 °F 78% 29.90 in 9.0 mi SE 8.1 mph - N/A   Clear
8:55 AM 75.2 °F - 66.2 °F 73% 29.90 in 9.0 mi SE 8.1 mph - N/A   Clear
9:15 AM 77.0 °F - 66.2 °F 69% 29.91 in 8.0 mi SSE 8.1 mph - N/A   Clear
9:35 AM 77.0 °F - 66.2 °F 69% 29.92 in 9.0 mi South 5.8 mph - N/A   Clear
9:55 AM 77.0 °F - 66.2 °F 69% 29.92 in 9.0 mi SSW 3.5 mph - N/A   Clear
10:15 AM 78.8 °F - 68.0 °F 69% 29.93 in 9.0 mi South 4.6 mph - N/A   Clear
10:35 AM 78.8 °F - 66.2 °F 65% 29.92 in 9.0 mi Calm Calm - N/A   Clear
10:55 AM 80.6 °F 83.2 °F 68.0 °F 65% 29.92 in 9.0 mi SW 3.5 mph - N/A   Clear
11:15 AM 80.6 °F 83.2 °F 68.0 °F 65% 29.92 in 9.0 mi South 3.5 mph - N/A   Clear
11:35 AM 80.6 °F 82.7 °F 66.2 °F 61% 29.92 in 10.0 mi SW 3.5 mph - N/A   Clear
11:55 AM 82.4 °F 85.4 °F 68.0 °F 62% 29.92 in 8.0 mi West 3.5 mph - N/A   Clear
12:15 PM 82.4 °F 84.6 °F 66.2 °F 58% 29.92 in 10.0 mi NNW 5.8 mph - N/A   Clear
12:35 PM 84.2 °F 86.6 °F 66.2 °F 55% 29.92 in 10.0 mi WNW 5.8 mph - N/A   Clear
12:55 PM 86.0 °F 87.3 °F 64.4 °F 48% 29.92 in 10.0 mi Calm Calm - N/A   Clear
1:15 PM 86.0 °F 86.1 °F 60.8 °F 43% 29.91 in 9.0 mi NNE 3.5 mph - N/A   Clear
1:35 PM 87.8 °F 87.6 °F 60.8 °F 40% 29.91 in 9.0 mi Calm Calm - N/A   Partly Cloudy
1:55 PM 87.8 °F 87.6 °F 60.8 °F 40% 29.91 in 9.0 mi WNW 4.6 mph - N/A   Partly Cloudy
2:15 PM 87.8 °F 86.5 °F 57.2 °F 35% 29.91 in 9.0 mi Calm Calm - N/A   Clear
2:35 PM 89.6 °F 88.1 °F 57.2 °F 33% 29.90 in 9.0 mi Calm Calm - N/A   Clear
2:55 PM 89.6 °F 89.5 °F 60.8 °F 38% 29.90 in 10.0 mi SW 3.5 mph - N/A   Clear
3:15 PM 87.8 °F 87.6 °F 60.8 °F 40% 29.90 in 10.0 mi ENE 6.9 mph - N/A   Partly Cloudy
3:35 PM 86.0 °F 86.6 °F 62.6 °F 45% 29.90 in 9.0 mi NE 8.1 mph - N/A   Scattered Clouds
3:55 PM 87.8 °F 87.6 °F 60.8 °F 40% 29.90 in 9.0 mi Calm Calm - N/A   Mostly Cloudy
4:15 PM 87.8 °F 88.5 °F 62.6 °F 43% 29.89 in 8.0 mi North 4.6 mph - N/A   Partly Cloudy
4:35 PM 87.8 °F 88.5 °F 62.6 °F 43% 29.88 in 9.0 mi NNE 9.2 mph - N/A   Scattered Clouds
4:55 PM 87.8 °F 88.5 °F 62.6 °F 43% 29.88 in 9.0 mi East 5.8 mph - N/A   Partly Cloudy
5:15 PM 87.8 °F 88.5 °F 62.6 °F 43% 29.88 in 8.0 mi NE 5.8 mph - N/A   Clear
5:55 PM 87.8 °F 87.6 °F 60.8 °F 40% 29.87 in 9.0 mi NE 6.9 mph - N/A   Clear
6:15 PM 86.0 °F 86.1 °F 60.8 °F 43% 29.87 in 9.0 mi NE 5.8 mph - N/A   Clear
6:35 PM 86.0 °F 85.4 °F 59.0 °F 40% 29.86 in 9.0 mi NNE 6.9 mph - N/A   Clear
6:55 PM 84.2 °F 83.5 °F 57.2 °F 40% 29.87 in 9.0 mi NNE 6.9 mph - N/A   Clear
7:15 PM 84.2 °F 83.8 °F 59.0 °F 42% 29.87 in 10.0 mi NNE 5.8 mph - N/A   Clear
7:35 PM 82.4 °F 82.9 °F 60.8 °F 48% 29.87 in 9.0 mi NNE 4.6 mph - N/A   Clear
7:55 PM 78.8 °F - 59.0 °F 51% 29.87 in 10.0 mi NNE 4.6 mph - N/A   Clear
8:15 PM 78.8 °F - 57.2 °F 47% 29.87 in 9.0 mi Calm Calm - N/A   Clear
8:35 PM 75.2 °F - 59.0 °F 57% 29.87 in 10.0 mi Calm Calm - N/A   Clear
8:55 PM 75.2 °F - 57.2 °F 53% 29.87 in 10.0 mi Calm Calm - N/A   Clear
9:15 PM 73.4 °F - 57.2 °F 57% 29.87 in 10.0 mi Calm Calm - N/A   Clear
9:35 PM 71.6 °F - 59.0 °F 64% 29.88 in 10.0 mi Calm Calm - N/A   Clear
9:55 PM 71.6 °F - 57.2 °F 60% 29.89 in 9.0 mi Calm Calm - N/A   Clear
10:15 PM 69.8 °F - 60.8 °F 73% 29.90 in 10.0 mi North 6.9 mph - N/A   Clear
10:35 PM 69.8 °F - 57.2 °F 64% 29.91 in 10.0 mi North 6.9 mph - N/A   Clear
10:55 PM 69.8 °F - 57.2 °F 64% 29.92 in 10.0 mi NNE 6.9 mph - N/A   Clear
11:15 PM 69.8 °F - 57.2 °F 64% 29.93 in 10.0 mi NNE 5.8 mph - N/A   Clear
11:35 PM 69.8 °F - 57.2 °F 64% 29.93 in 10.0 mi NNE 5.8 mph - N/A   Clear
11:55 PM 68.0 °F - 57.2 °F 68% 29.93 in 10.0 mi NNE 5.8 mph - N/A   Clear